Tracking 19146 objects as of 23-Apr-2018
HD Live streaming from Space Station
objects crossing your sky now

FENGYUN 1C DEB

Track FENGYUN 1C DEB now!
10-day predictions


NORAD ID: 33716
Int'l Code: 1999-025DHD
Perigee: 727.9 km
Apogee: 865.2 km
Inclination: 99.0 °
Period: 100.7 minutes
Semi major axis: 7167 km
RCS: 0.0093 m2 (small)
Launch date: May 10, 1999
Source: People's Republic of China (PRC)
Launch site: Taiyaun Space Center, China (TSC)

Note: This is SATELLITE DEBRIS
aabbcc
Your satellite tracking list
Your tracking list is empty




NASA's NSSDC Master Catalog

Two Line Element Set (TLE):
1 33716U 99025DHD 18111.20235294  .00000057  00000-0  38236-4 0  9992
2 33716  99.0179 273.0218 0095793 211.3979 148.1462 14.30693232549899
Source of the keplerian elements: AFSPC